Location: Champseau
(45.8333°N, 1.7667°E)
Time: 05:02:15
(UTC+00:00)

Cosmos 1825 - Pass Details

Date: 18 April 2021
Orbit: 502 x 505 km, 82.5° (Epoch: 15 May)

Event Time Altitude Azimuth Distance (km) Brightness Sun altitude
Rises 20:02:58 0° 350° (N) 2,617 6.4 -13.4°
Reaches altitude 10° 20:05:05 10° 350° (N) 1,728 5.5 -13.7°
Maximum altitude 20:08:53 87° 266° (W) 513 2.1 -14.2°
Enters shadow 20:11:58 15° 174° (S) 1,439 4.1 -14.7°
